This is the latest recevied weather packets stored in our database for station/object KQ7A. If no packets are shown the sender has not sent any weather packets the latest 10 day(s).
| Time | Temp. | Humidity | Pressure | Rain* | Wind** | Luminosity | Snow |
|---|---|---|---|---|---|---|---|
| 1778121422 | 15.56° C | 46% | 1020.5 hPa | 0 mm | - | 12 W/m² | - |
| 1778121120 | 15.56° C | 48% | 1020.4 hPa | 0 mm | - | 14 W/m² | - |
| 1778120817 | 15.56° C | 45% | 1020.4 hPa | 0 mm | - | 16 W/m² | - |
| 1778120513 | 16.11° C | 42% | 1020.4 hPa | 0 mm | - | 18 W/m² | - |
| 1778120209 | 16.67° C | 43% | 1019.8 hPa | 0 mm | - | 21 W/m² | - |
| 1778119904 | 17.22° C | 37% | 1020.4 hPa | 0 mm | - | 23 W/m² | - |
| 1778119603 | 17.78° C | 34% | 1020.3 hPa | 0 mm | - | 24 W/m² | - |
| 1778119299 | 17.78° C | 34% | 1020.4 hPa | 0 mm | - | 26 W/m² | - |
| 1778118998 | 17.78° C | 34% | 1020.1 hPa | 0 mm | - | 29 W/m² | - |
| 1778118694 | 17.78° C | 33% | 1020 hPa | 0 mm | - | 29 W/m² | - |
| 1778118391 | 17.78° C | 33% | 1020.5 hPa | 0 mm | - | 32 W/m² | - |
| 1778118087 | 18.33° C | 31% | 1020.4 hPa | 0 mm | - | 32 W/m² | - |
| 1778117784 | 18.33° C | 32% | 1020.1 hPa | 0 mm | - | 34 W/m² | - |
| 1778117481 | 18.33° C | 33% | 1020.4 hPa | 0 mm | - | 35 W/m² | - |
| 1778117178 | 18.89° C | 32% | 1020.3 hPa | 0 mm | - | 37 W/m² | - |
| 1778116874 | 19.44° C | 33% | 1020.1 hPa | 0 mm | - | 38 W/m² | - |
| 1778116572 | 21.67° C | 33% | 1020.4 hPa | 0 mm | - | 43 W/m² | - |
| 1778116268 | 22.78° C | 28% | 1020.5 hPa | 0 mm | - | 190 W/m² | - |
| 1778115963 | 23.33° C | 30% | 1020.4 hPa | 0 mm | - | 203 W/m² | - |
| 1778115659 | 24.44° C | 25% | 1020.4 hPa | 0 mm | - | 225 W/m² | - |
| 1778115357 | 23.89° C | 31% | 1020.4 hPa | 0 mm | - | 238 W/m² | - |
| 1778115052 | 24.44° C | 31% | 1020.5 hPa | 0 mm | - | 252 W/m² | - |
| 1778114750 | 25° C | 24% | 1020.3 hPa | 0 mm | - | 271 W/m² | - |
| 1778114447 | 25° C | 26% | 1020.4 hPa | 0 mm | - | 300 W/m² | - |
| 1778114143 | 25° C | 23% | 1020.3 hPa | 0 mm | - | 319 W/m² | - |
* Rain latest hour (hover to see other rain measurements)
** Current wind speed in m/s (hover to see current wind gust speed)